Date String (YYYY-MM-DD hh:mm:ss) UTC,Instrument flags,absolute air pressure of the measurement (hPa),sample flow rate (lpm),inlet stack bypass flow (lpm),air temperature of the measurement (°C),ambient temperature measured by the external sensor (°C),aerosol sample conditioner tube jacket temperature (°C),OPC LED temperature (°C),internal box temperature (°C),relative humidity of the measurement (%),span deviation,mass concentration of particles derived from Lorenz-Mie calculation of OPC scattering (μg/m³),mass concentration of particles derived from Lorenz-Mie calculation of OPC scattering (μg/m³),mass concentration of particles derived from Lorenz-Mie calculation of OPC scattering (μg/m³)
DateTimeUTC,F1_M11,P_M11,Q1_M11,Q2_M11,T1_M11,T2_M11,T3_M11,T4_M11,T5_M11,U1_M11,ZSPAN_M11,X0_M11,X2_M11,X1_M11
2023-12-14 23:00:00,SystemResetWarning,0831.5,5.00,000.00,019.4,018.6,000.0,027.6,020.7,23.5,0000.2,0025.43,0018.34,0017.54
2023-12-14 23:01:00,SystemResetWarning,0831.5,5.00,000.00,019.4,018.6,000.0,027.6,020.7,23.5,0000.4,0025.40,0018.37,0017.53
2023-12-14 23:02:00,SystemResetWarning,0831.5,5.01,000.00,019.4,018.6,000.0,027.6,020.7,23.3,0000.5,0025.65,0018.31,0017.48
2023-12-14 23:03:00,SystemResetWarning,0831.6,5.00,000.00,019.4,018.6,000.0,027.6,020.7,23.3,0000.4,0025.65,0018.27,0017.43
2023-12-14 23:04:00,SystemResetWarning,0831.5,5.00,000.00,019.4,018.6,000.0,027.6,020.7,23.3,0000.4,0025.59,0018.25,0017.40
2023-12-14 23:05:00,SystemResetWarning,0831.6,5.00,000.00,019.4,018.6,000.0,027.6,020.7,23.4,0000.6,0025.53,0018.26,0017.41
2023-12-14 23:06:00,SystemResetWarning,0831.6,5.00,000.00,019.4,018.6,000.0,027.6,020.7,23.4,0000.8,0025.78,0018.31,0017.41
2023-12-14 23:07:00,SystemResetWarning,0831.6,5.01,000.00,019.4,018.6,000.0,027.6,020.7,23.4,0000.9,0025.86,0018.31,0017.41
2023-12-14 23:08:00,SystemResetWarning,0831.6,5.00,000.00,019.4,018.6,000.0,027.6,020.7,23.4,0000.8,0026.03,0018.40,0017.44
2023-12-14 23:09:00,SystemResetWarning,0831.6,5.00,000.00,019.4,018.6,000.0,027.6,020.7,23.3,0000.6,0026.09,0018.43,0017.45
2023-12-14 23:10:00,SystemResetWarning,0831.7,5.00,000.00,019.4,018.6,000.0,027.7,020.7,23.3,0000.6,0026.08,0018.40,0017.42
2023-12-14 23:11:00,SystemResetWarning,0831.7,4.99,000.00,019.4,018.6,000.0,027.7,020.7,23.2,0000.7,0025.84,0018.32,0017.39
2023-12-14 23:12:00,SystemResetWarning,0831.7,5.00,000.00,019.4,018.6,000.0,027.7,020.7,23.2,0000.6,0025.60,0018.26,0017.39
2023-12-14 23:13:00,SystemResetWarning,0831.7,4.99,000.00,019.4,018.6,000.0,027.7,020.7,23.2,0000.6,0025.13,0018.24,0017.41
2023-12-14 23:14:00,SystemResetWarning,0831.7,5.00,000.00,019.4,018.6,000.0,027.7,020.7,23.1,0000.6,0025.15,0018.25,0017.42
2023-12-14 23:15:00,SystemResetWarning,0831.6,5.00,000.00,019.4,018.6,000.0,027.7,020.7,23.1,0000.7,0025.81,0018.23,0017.40
2023-12-14 23:16:00,SystemResetWarning,0831.7,4.99,000.00,019.4,018.6,000.0,027.7,020.7,23.0,0000.5,0026.02,0018.26,0017.38
2023-12-14 23:17:00,SystemResetWarning,0831.9,5.00,000.00,019.4,018.6,000.0,027.7,020.7,23.0,0000.5,0026.26,0018.25,0017.40
2023-12-14 23:18:00,SystemResetWarning,0832.3,5.01,000.00,019.4,018.6,000.0,027.7,020.7,23.0,0000.4,0026.58,0018.19,0017.40
2023-12-14 23:19:00,SystemResetWarning,0832.3,5.00,000.00,019.4,018.6,000.0,027.7,020.7,23.0,0000.4,0026.89,0018.15,0017.39
2023-12-14 23:20:00,SystemResetWarning,0831.8,5.00,000.00,019.4,018.6,000.0,027.7,020.7,22.9,0000.7,0027.56,0018.13,0017.40
2023-12-14 23:21:00,SystemResetWarning,0831.8,5.00,000.00,019.4,018.6,000.0,027.7,020.7,22.9,0000.8,0027.70,0018.14,0017.39
2023-12-14 23:22:00,SystemResetWarning,0831.9,5.00,000.00,019.4,018.6,000.0,027.7,020.7,22.9,0001.0,0027.78,0018.17,0017.41
2023-12-14 23:23:00,SystemResetWarning,0831.9,5.00,000.00,019.4,018.6,000.0,027.7,020.7,22.8,0001.1,0027.81,0018.18,0017.38
2023-12-14 23:24:00,SystemResetWarning,0831.9,5.00,000.00,019.4,018.6,000.0,027.7,020.7,22.8,0001.1,0027.67,0018.24,0017.39
2023-12-14 23:25:00,SystemResetWarning,0831.9,5.00,000.00,019.4,018.6,000.0,027.7,020.7,22.8,0001.1,0027.57,0018.21,0017.37
2023-12-14 23:26:00,SystemResetWarning,0832.0,5.00,000.00,019.4,018.6,000.0,027.7,020.7,22.8,0001.0,0026.73,0018.19,0017.35
2023-12-14 23:27:00,SystemResetWarning,0832.0,4.99,000.00,019.4,018.6,000.0,027.7,020.7,22.8,0001.1,0026.56,0018.17,0017.38
2023-12-14 23:28:00,SystemResetWarning,0832.0,5.00,000.00,019.4,018.6,000.0,027.7,020.7,22.8,0001.0,0026.04,0018.13,0017.34
2023-12-14 23:29:00,SystemResetWarning,0832.0,4.99,000.00,019.4,018.6,000.0,027.7,020.7,22.7,0001.0,0025.58,0018.13,0017.32
2023-12-14 23:30:00,SystemResetWarning,0832.0,4.99,000.00,019.5,018.7,000.0,027.7,020.7,22.7,0001.0,0025.07,0018.13,0017.32
2023-12-14 23:31:00,SystemResetWarning,0832.0,5.00,000.00,019.5,018.7,000.0,027.7,020.7,22.7,0000.9,0024.38,0018.11,0017.29
2023-12-14 23:32:00,SystemResetWarning,0832.0,5.00,000.00,019.5,018.7,000.0,027.7,020.7,22.7,0000.9,0024.26,0018.12,0017.29
2023-12-14 23:33:00,SystemResetWarning,0832.0,4.99,000.00,019.5,018.7,000.0,027.7,020.7,22.7,0000.8,0024.23,0018.10,0017.28
2023-12-14 23:34:00,SystemResetWarning,0832.0,4.99,000.00,019.5,018.7,000.0,027.7,020.7,22.7,0000.7,0024.44,0018.13,0017.30
2023-12-14 23:35:00,SystemResetWarning,0832.0,5.00,000.00,019.5,018.7,000.0,027.7,020.8,22.7,0000.8,0024.39,0018.07,0017.28
2023-12-14 23:36:00,SystemResetWarning,0832.0,5.00,000.00,019.5,018.7,000.0,027.7,020.8,22.7,0000.6,0024.46,0018.11,0017.31
2023-12-14 23:37:00,SystemResetWarning,0832.0,5.01,000.00,019.5,018.7,000.0,027.7,020.8,22.6,0000.5,0024.55,0018.14,0017.32
2023-12-14 23:38:00,SystemResetWarning,0832.0,5.00,000.00,019.5,018.7,000.0,027.7,020.8,22.6,0000.6,0024.74,0018.14,0017.29
2023-12-14 23:39:00,SystemResetWarning,0832.0,4.99,000.00,019.5,018.7,000.0,027.8,020.8,22.6,0000.7,0025.38,0018.16,0017.30
2023-12-14 23:40:00,SystemResetWarning,0832.1,5.00,000.00,019.5,018.7,000.0,027.8,020.8,22.6,0000.6,0025.56,0018.19,0017.32
2023-12-14 23:41:00,SystemResetWarning,0832.1,5.00,000.00,019.5,018.7,000.0,027.8,020.8,22.5,0000.5,0025.65,0018.24,0017.32
2023-12-14 23:42:00,SystemResetWarning,0832.1,4.99,000.00,019.5,018.7,000.0,027.8,020.8,22.5,0000.5,0025.63,0018.21,0017.28
2023-12-14 23:43:00,SystemResetWarning,0832.1,5.00,000.00,019.5,018.7,000.0,027.8,020.8,22.5,0000.6,0025.53,0018.18,0017.26
2023-12-14 23:44:00,SystemResetWarning,0832.2,4.99,000.00,019.5,018.7,000.0,027.8,020.8,22.5,0000.7,0025.73,0018.23,0017.27
2023-12-14 23:45:00,SystemResetWarning,0832.2,5.00,000.00,019.5,018.7,000.0,027.8,020.8,22.5,0000.8,0025.38,0018.16,0017.23
2023-12-14 23:46:00,SystemResetWarning,0832.1,5.00,000.00,019.5,018.7,000.0,027.8,020.8,22.5,0000.8,0025.30,0018.16,0017.25
2023-12-14 23:47:00,SystemResetWarning,0832.1,5.01,000.00,019.5,018.7,000.0,027.8,020.8,22.5,0001.0,0025.51,0018.17,0017.26
2023-12-14 23:48:00,SystemResetWarning,0832.1,5.01,000.00,019.5,018.7,000.0,027.8,020.8,22.5,0001.0,0025.64,0018.14,0017.26
2023-12-14 23:49:00,SystemResetWarning,0832.1,5.00,000.00,019.5,018.7,000.0,027.8,020.8,22.5,0001.0,0025.40,0018.11,0017.26
2023-12-14 23:50:00,SystemResetWarning,0832.1,4.99,000.00,019.5,018.7,000.0,027.8,020.8,22.5,0001.0,0024.77,0018.07,0017.24
2023-12-14 23:51:00,SystemResetWarning,0832.1,4.99,000.00,019.5,018.7,000.0,027.8,020.8,22.4,0001.2,0024.50,0018.05,0017.25
2023-12-14 23:52:00,SystemResetWarning,0832.1,5.00,000.00,019.5,018.7,000.0,027.8,020.8,22.4,0001.4,0024.47,0018.02,0017.24
2023-12-14 23:53:00,SystemResetWarning,0832.1,5.01,000.00,019.5,018.7,000.0,027.8,020.8,22.4,0001.4,0024.60,0018.08,0017.30
2023-12-14 23:54:00,SystemResetWarning,0832.1,5.01,000.00,019.6,018.7,000.0,027.8,020.8,22.3,0001.3,0024.73,0018.08,0017.31
2023-12-14 23:55:00,SystemResetWarning,0832.1,5.00,000.00,019.6,018.7,000.0,027.8,020.8,22.3,0001.1,0024.91,0018.05,0017.31
2023-12-14 23:56:00,SystemResetWarning,0832.1,4.99,000.00,019.6,018.7,000.0,027.8,020.9,22.3,0001.0,0025.42,0018.14,0017.34
2023-12-14 23:57:00,SystemResetWarning,0832.1,5.00,000.00,019.6,018.7,000.0,027.8,020.9,22.3,0000.9,0025.87,0018.21,0017.34
2023-12-14 23:58:00,SystemResetWarning,0832.1,5.00,000.00,019.6,018.7,000.0,027.8,020.8,22.4,0000.8,0026.14,0018.21,0017.34
2023-12-14 23:59:00,SystemResetWarning,0832.1,5.00,000.00,019.6,018.8,000.0,027.8,020.9,22.4,0000.9,0026.05,0018.24,0017.34
